Location: Ferchesar
(52.6477°N, 12.4298°E)
Time: 21:24:07
(UTC+01:00)

TIGRISAT - Pass Details

Date: 18 October 2021
Orbit: 603 x 689 km, 97.7° (Epoch: 30 November)

Event Time Altitude Azimuth Distance (km) Brightness Sun altitude
Rises 20:33:40 0° 13° (NNE) 3,022 ? -22.7°
Reaches altitude 10° 20:35:56 10° 13° (NNE) 2,092 ? -23.0°
Maximum altitude 20:40:30 85° 286° (WNW) 659 ? -23.7°
Drops below altitude 10° 20:44:55 10° 198° (SSW) 2,021 ? -24.3°
Sets 20:47:05 0° 198° (SSW) 2,911 ? -24.6°
